Location: Boiro
(42.6475°N, 8.8834°W)
Time: 03:39:52
(UTC+01:00)

Vanguard 2 - Pass Details

Date: 09 December 2021
Orbit: 553 x 2936 km, 32.9° (Epoch: 20 January)

Event Time Altitude Azimuth Distance (km) Brightness Sun altitude
Rises 16:25:40 0° 256° (WSW) 2,918 11.5 12.8°
Reaches altitude 10° 16:28:01 10° 242° (WSW) 2,166 11.5 12.5°
Maximum altitude 16:32:05 25° 187° (S) 1,671 10.3 12.0°
Drops below altitude 10° 16:37:43 10° 134° (SE) 3,079 10.7 11.3°
Sets 16:41:48 0° 123° (ESE) 4,483 11.3 10.7°
